Regional Weather Roundup
Issued by NWS

Home | Current Version | Previous Version | Graphics & Text | Print | Product List | Glossary Off
Versions: 1 2 3 4 5 6 7 8 9 10 11 12 13 14 15 16 17 18 19 20 21 22 23 24 25 26 27 28 29 30 31 32 33 34 35 36 37 38 39 40 41 42 43 44 45 46 47 48 49 50

000
ASUS43 KMKX 192021
RWRWI

WISCONSIN REGIONAL WEATHER ROUNDUP
NATIONAL WEATHER SERVICE MILWAUKEE/SULLIVAN WI
300 PM CDT FRI SEP 19 2014

NOTE: "FAIR" INDICATES FEW OR NO CLOUDS BELOW 12,000 FEET WITH NO
SIGNIFICANT WEATHER AND/OR OBSTRUCTIONS TO VISIBILITY.

WIZ001-002-006>008-014>016-023>028-192100-
NORTHWEST WISCONSIN

CITY           SKY/WX    TMP DP  RH WIND       PRES   REMARKS
SUPERIOR ARPT  LGT RAIN  64  58  81 SW7       29.70S
ASHLAND        PTSUNNY   67  56  67 S10G22    29.68F
HAYWARD        CLOUDY    67  56  67 S14G23    29.73F
SIREN          CLOUDY    67  58  71 S5        29.72S
RICE LAKE      PTSUNNY   70  56  62 S13G25    29.74F
LADYSMITH      PTSUNNY   70  56  61 S14G26    29.76F
EAU CLAIRE     SUNNY     73  56  54 S23G30    29.74F
MENOMONIE      PTCLDY    75  57  53 S17G23    29.73F
NEW RICHMOND   CLOUDY    74  58  59 SW14G26   29.71F
OSCEOLA        CLOUDY    72  60  66 S7        29.73F
$$

WIZ003>005-009-010-017-018-192100-
NORTH CENTRAL WISCONSIN

CITY           SKY/WX    TMP DP  RH WIND       PRES   REMARKS
WOODRUFF       PTSUNNY   69  54  58 S20G29    29.80F
RHINELANDER    CLOUDY    67  52  58 S20G28    29.83S
EAGLE RIVER    CLOUDY    66  49  53 S14G25    29.81F
LAND O LAKES   CLOUDY    66  50  55 SW16G32   29.80F
PHILLIPS       CLOUDY    67  55  63 S16G23    29.77F
TOMAHAWK       PTSUNNY   68  54  60 S7        29.83F
MEDFORD        PTSUNNY   68  54  59 S25G35    29.82F
MERRILL        PTSUNNY   70  54  57 S17G29    29.85F
$$

WIZ029-030-035-036-043>047-192100-
CENTRAL WISCONSIN

CITY           SKY/WX    TMP DP  RH WIND       PRES   REMARKS
WAUSAU         PTSUNNY   70  52  52 S22G36    29.86F
MOSINEE        SUNNY     68  52  56 S23G32    29.88F
MARSHFIELD     PTSUNNY   71  54  54 S24G32    29.85F
STEVENS POINT  MOSUNNY   70  51  51 S26G32    29.88F
WAUPACA        MOSUNNY   73  53  48 S16G23    29.91F
WAUTOMA        MOSUNNY   75  53  46 S17G24    29.93F
WISC RAPIDS    MOSUNNY   72  52  49 S23G36    29.89F
CAMP DOUGLAS   PTSUNNY   73  55  53 S23G32    29.87F
$$

WIZ011>013-019>022-031-037>040-048>050-192100-
NORTHEAST WISCONSIN

CITY           SKY/WX    TMP DP  RH WIND       PRES   REMARKS
ANTIGO         PTSUNNY   66  53  62 S20G26    29.87F
STURGEON BAY   PTSUNNY   63  55  77 S23G35    29.93F
GREEN BAY      MOSUNNY   72  50  45 S20G32    29.92F
MANITOWOC      MOSUNNY   64  57  78 S23G31    29.97F
APPLETON       PTSUNNY   72  48  43 S20G26    29.93F
CLINTONVILLE   MOSUNNY   72  50  46 S21G28    29.90F
OSHKOSH        SUNNY     73  51  46 SW17G29   29.94F
$$

WIZ032>034-041-042-053>061-192100-
SOUTHWEST WISCONSIN

CITY           SKY/WX    TMP DP  RH WIND       PRES   REMARKS
LA CROSSE      SUNNY     76  56  49 S24G33    29.83F
SPARTA         PTSUNNY   73  54  49 S16G22    29.87F
VIROQUA        FAIR      73  54  52 S20G26    29.90F
BOSCOBEL       SUNNY     76  54  46 S13G25    29.93F
PRAIRIE DU CHI MOSUNNY   75  52  44 S15G25    29.92F
PLATTEVILLE    FAIR      74  53  47 S20G25    29.98F
$$

WIZ056-057-062-063-064-067-068-192100-
SOUTH CENTRAL WISCONSIN

CITY           SKY/WX    TMP DP  RH WIND       PRES   REMARKS
BARABOO/DELLS  SUNNY     73  50  44 SW17G28   29.95S
LONE ROCK      SUNNY     78  53  41 SW16G23   29.95F
WATERTOWN      SUNNY     73  49  43 S18G24    29.98F
MADISON        PTSUNNY   73  50  44 S22G28    29.97F
MIDDLETON      FAIR      74  48  39 S23G29    29.97F
MONROE         SUNNY     72  52  49 S21G30    29.99F
JANESVILLE     SUNNY     75  46  35 S20G26    30.00F
$$

WIZ051-052-058>065-066-070>072-192100-
SOUTHEAST WISCONSIN

CITY           SKY/WX    TMP DP  RH WIND       PRES   REMARKS
MILWAUKEE      MOSUNNY   73  48  41 S16G29    30.02F
WAUKESHA       NOT AVBL
MILWAUKEE/TIMM SUNNY     72  45  37 SW17G28   30.02F
RACINE         SUNNY     69  52  54 S21G29    30.05F
BURLINGTON     SUNNY     73  48  41 S15G23    30.02F
KENOSHA        SUNNY     72  49  44 S18G25    30.04F
FOND DU LAC    SUNNY     73  49  42 S21G33    29.95F
SHEBOYGAN      SUNNY     70  55  59 S14G24    29.98F
WEST BEND      SUNNY     72  46  40 S13G29    29.99F
JUNEAU         SUNNY     72  49  44 S24G32    29.98F
$$

LSZ147-162-192100-
LAKE SUPERIOR

STATION/POSITION TIME  TEMP    WIND        PRES    WAVE
                       AIR SEA DIR/SP/G            HT/PER
                 (UTC) (F)     (DEG/KT/KT) (MB)    (FT/S)
W MID LAKE BUOY  1950   53 48  190/  6/  6 1005.6F   2/ 5
DEVILS ISLAND    2000   60     220/  4/  4 1005.5F
PORT WING        1940   67     220/  9/ 14 1005.8F
SAXON HARBOR     2000   69     200/  9/ 19 1005.4F
$$

LMZ867-665-643>646-192100-
LAKE MICHIGAN

STATION/POSITION TIME  TEMP    WIND        PRES    WAVE
                       AIR SEA DIR/SP/G            HT/PER
                 (UTC) (F)     (DEG/KT/KT) (MB)    (FT/S)
N MID LAKE BUOY  1950   60 58  190/ 25/ 29 1013.7F   6/ 7
NORTHPORT PIER   1920   59     150/ 11     1014.2F
KEWAUNEE LAKESHO 2000   57     170/ 17/ 20 1013.5F
SHEBOYGAN LAKESH 2000   57 54  180/ 17/ 20 1015.6F
PORT WASHINGTON  1900   65     190/  6/ 14 1017.3
ATWATER BUOY     2000   61     160/ 19/ 25 1017.0F
MILWAUKEE LAKESH 2000   61     150/ 20/ 23   N/A
S MID LAKE BUOY  1950   65 65  170/ 14/ 17 1018.6F   3/ 5
KENOSHA   LAKESH 2000   64     160/ 18/ 19 1016.6F
$$

TC  - TEMPERATURE IN CELSIUS
VSB - VISIBILITY IN STATUTE MILES
WCI - WIND CHILL INDEX
HX  - HEAT INDEX



USA.gov is the U.S. government's official web portal to all federal, state and local government web resources and services.